STARLINK-1029 (44734 NORAD) Tracking and Keplerian Element Data

This shows tracking and keplerian element data for the satellite.

Feedback or suggestion? Click here.




ElementValue
Catalog44734
NameSTARLINK-1029
Epoch Orbit1065
Epoch Day18.25002315
Epoch Year2020
RAAN195.225
Inclination53.0076
Eccentricity0.0001431
Argument of Perigee57.2573
Mean Anonmoly171.0614
Mean Motion15.61515878
Decay Rate0.00122282
L11 44734U 19074X 20018.25002315 .00122282 00000-0 13862-2 0 9991
L22 44734 53.0076 195.2250 0001431 57.2573 171.0614 15.61515878 10656

Live tracking and technical data element details for STARLINK-1029 (NORAD 44734). STARLINK-1029 can be tracked NOW for your location showing map with azimuth and elevation plus other details from your city location.

Track the satellite on the map from your city or location and see movement details for azimuth, elevation, latitude, longitude, range, height, and movement on the map or in text.







IsCatalogInMostPopularTable: catalog: 44734, numindb: 10
Update: records affected: 1



GetName: 44734 STARLINK-1029

Hit Count: updated at: Sat, 18 Jan 2020 17:10:11 GMT